Location: Wingville
(42.9917°N, 90.4915°W)
Time: 01:23:14
(UTC+00:00)

UWE-3 - Pass Details

Date: 30 June 2022
Orbit: 583 x 677 km, 97.7° (Epoch: 16 August)

Event Time Altitude Azimuth Distance (km) Brightness Sun altitude
Rises 08:22:13 0° 30° (NNE) 2,892 ? -16.8°
Reaches altitude 10° 08:25:04 10° 51° (NE) 2,000 ? -16.5°
Maximum altitude 08:27:57 17° 92° (E) 1,593 ? -16.2°
Drops below altitude 10° 08:30:51 10° 134° (SE) 2,028 ? -15.9°
Enters shadow 08:33:16 - 151° (SSE) 2,775 ? -15.6°
